Regional Weather Roundup
Issued by NWS State College, PA

Home | Current Version | Previous Version | Graphics & Text | Print | Product List | Glossary On
Versions: 1 2 3 4 5 6 7 8 9 10 11 12 13 14 15 16 17 18 19 20 21 22 23 24 25 26 27 28 29 30 31 32 33 34 35 36 37 38 39 40 41 42 43 44 45 46 47 48 49 50
000
ASUS41 KCTP 241910
RWRCTP

REGIONAL WEATHER ROUNDUP
NATIONAL WEATHER SERVICE STATE COLLEGE PA
300 PM EDT SUN MAY 24 2015

Note: "fair" indicates few or no clouds below 12,000 feet with no
significant weather and/or obstructions to visibility.

* = STATION THAT DOES NOT REPORT PRECIPITATION /E.G. RAIN...SNOW...ETC/
    THUNDER OR FOG.

PAZ002>004-007>009-013>016-020>023-029>032-242000-
WESTERN PENNSYLVANIA

CITY           SKY/WX    TMP DP  RH WIND       PRES   REMARKS
ERIE           MOSUNNY   76  43  30 W10       30.25F
MEADVILLE      MOSUNNY   76  47  35 W6        30.27F
FRANKLIN*      MOSUNNY   77  46  33 W8G16     30.29F
NEW CASTLE     FAIR      82  46  28 CALM      30.27F
BEAVER COUNTY  NOT AVBL
BUTLER*        MOSUNNY   79  45  29 SW12      30.30F
PITTSBURGH INT PTSUNNY   80  40  23 SW8       30.28F
PITTSBURGH     SUNNY     78  36  21 VRB5      30.28F
INDIANA*       SUNNY     77  43  29 NW7       30.33F
LATROBE        PTSUNNY   77  43  29 SW7       30.30F
WASHINGTON CO* SUNNY     79  43  27 CALM      30.30F
$$

PAZ004>006-010>012-017>019-024>028-033>037-041-042-045-046-049>053-242000-
CENTRAL PENNSYLVANIA

CITY           SKY/WX    TMP DP  RH WIND       PRES   REMARKS
BRADFORD       MOSUNNY   74  40  29 VRB7      30.30F
DUBOIS         MOSUNNY   79  43  27 SW12G22   30.29F
CLEARFIELD     MOSUNNY   78  42  27 SW14      30.29F
JOHNSTOWN      MOSUNNY   73  39  29 VRB6      30.32F
ALTOONA        MOSUNNY   78  39  24 VRB6      30.30F
STATE COLLEGE  MOSUNNY   81  43  26 W9        30.28F
WILLIAMSPORT   MOSUNNY   80  40  23 SW5       30.24F
SELINSGROVE    MOSUNNY   80  44  27 SE10      30.27F
FT INDIANTOWN  MOSUNNY   79  43  28 SW8       30.28F HAZE
CAPITAL CITY   MOSUNNY   80  40  23 SW8       30.28F
HARRISBURG     PTSUNNY   79  46  31 SE6       30.28F
YORK           MOSUNNY   78  44  29 CALM      30.30F
$$

PAZ038>040-043-044-047-048-054-055-060>062-067>071-242000-
EASTERN PENNSYLVANIA

CITY           SKY/WX    TMP DP  RH WIND       PRES   REMARKS
SCRANTON       MOSUNNY   79  35  20 SW8       30.26F
MOUNT POCONO   MOSUNNY   74  28  18 W17       30.31F
ALLENTOWN      SUNNY     81  40  23 SW14G20   30.28F
QUAKERTOWN*    PTCLDY    79  39  24 S7G17     30.30F
READING        PTSUNNY   80  40  23 VRB5      30.27F
LANCASTER      MOSUNNY   78  42  27 MISG      30.29F
COATESVILLE    PTCLDY    75  46  35 SW3       30.32S
POTTSTOWN      MOSUNNY   76  39  26 W6        30.31F
BLUE BELL      MOSUNNY   81  46  30 W7G16     30.29S
DOYLESTOWN     MOSUNNY   79  40  24 W10       30.28F
WILLOW GROVE   NOT AVBL
NORTH PHILA    MOSUNNY   80  47  31 VRB6G17   30.30F
PHILADELPHIA   MOSUNNY   78  49  35 W13       30.30F
$$


USA.gov is the U.S. government's official web portal to all federal, state and local government web resources and services.